RH
37 38 37 37 37 37 37 36 35 35 34 34 34 33 33 33 33 33 33 32 32 33 33 34 35 36 37 38 39 40 40 41 42 43 44 45 46 48 50 52 54 56 58 59 60 60 61 62 62 63 64 65 68 73 79 83 84 85 85 85 86 86 83 78 75 74 75 76 76
35 36 36 36 36 36 36 35 35 35 34 34 34 34 34 34 34 34 34 33 33 33 33 34 34 36 37 38 39 40 41 42 43 44 45 47 48 50 52 55 56 57 58 59 59 61 61 62 63 63 64 66 69 74 79 85 86 86 86 85 84 84 82 79 76 76 76 76 76
34 34 34 34 34 35 35 35 35 35 35 34 34 35 35 35 35 35 35 34 34 34 34 34 34 35 36 37 39 40 41 42 44 45 46 48 49 51 53 55 56 57 58 59 60 61 61 62 62 63 64 67 70 73 78 84 85 86 86 86 85 83 82 81 79 77 76 77 76
32 33 33 33 33 34 34 35 35 35 35 35 35 35 35 35 35 35 35 35 34 34 34 34 34 35 35 37 39 40 41 43 44 45 47 48 49 51 53 55 56 57 58 60 61 62 62 62 62 63 65 68 70 74 78 83 85 86 86 86 86 85 84 84 81 80 79 78 77
31 31 32 32 33 33 34 34 35 35 35 35 35 35 36 36 35 35 35 35 35 35 35 35 35 35 36 37 38 40 41 43 44 46 47 48 50 51 52 54 56 57 59 60 60 60 60 61 62 64 66 69 71 73 76 81 83 85 85 86 86 86 86 87 85 83 81 80 78
30 31 31 32 33 34 34 34 34 35 35 35 36 36 36 35 35 36 36 36 36 36 36 36 36 36 36 36 38 40 42 43 44 46 47 48 49 50 52 53 54 55 56 56 56 56 56 58 60 63 66 68 70 72 73 75 79 83 86 87 87 87 88 89 88 86 83 80 78
29 30 31 32 33 33 34 34 34 35 35 35 35 36 35 35 35 35 36 36 36 37 37 37 36 36 36 37 39 41 42 43 45 46 47 48 49 50 51 53 53 53 54 54 54 54 56 58 62 65 67 68 69 70 71 74 78 80 83 83 85 86 87 88 88 86 83 80 77
29 30 31 32 32 33 33 34 34 35 35 35 35 35 35 35 35 35 36 36 36 37 37 36 36 37 38 40 41 42 42 43 44 46 47 49 50 51 51 52 52 52 53 54 55 57 59 63 67 68 67 65 66 68 70 73 76 77 78 79 82 85 86 87 87 86 83 80 76
30 31 31 32 32 32 33 33 34 34 35 35 35 35 34 35 35 35 36 36 36 36 36 37 38 39 41 42 42 42 42 43 45 46 47 49 49 49 50 50 51 51 52 53 54 56 57 59 60 60 60 61 63 66 69 71 75 78 79 79 81 83 84 85 85 84 83 80 78
30 31 32 32 32 33 33 33 33 34 34 34 34 34 34 35 35 36 36 36 36 36 37 38 40 41 42 42 42 42 43 44 45 46 47 48 48 49 49 50 50 50 51 52 53 54 54 55 56 56 57 59 61 64 67 70 73 77 79 79 79 80 81 82 83 83 82 81 80
30 31 32 32 33 33 33 33 34 33 33 33 34 34 34 35 35 35 35 35 35 37 38 40 42 42 42 42 43 44 44 45 45 46 46 47 47 48 49 50 50 50 51 51 52 53 53 53 54 55 56 57 59 62 64 66 68 70 72 73 74 75 77 78 79 80 81 82 82
30 31 32 33 33 33 33 34 34 34 34 34 34 34 34 35 35 35 36 36 37 38 40 41 42 42 42 43 44 45 45 45 45 45 45 46 47 47 48 48 49 49 50 50 51 51 52 52 53 53 54 55 57 58 59 61 63 64 65 67 68 70 71 72 73 76 79 81 82
29 31 32 32 33 33 34 34 34 34 34 34 34 34 35 35 35 35 36 37 38 39 41 41 42 43 43 44 44 44 44 44 44 45 46 46 46 46 46 46 47 48 48 49 50 50 50 51 51 52 53 53 54 55 56 58 59 61 62 64 66 67 68 69 69 72 75 78 79
29 30 31 32 32 33 33 33 33 34 34 35 35 35 35 35 35 36 37 38 39 40 40 41 42 43 43 43 43 42 43 44 44 44 44 44 44 44 44 45 46 46 47 47 47 48 48 49 50 51 51 52 53 54 54 55 57 58 60 62 64 65 66 67 68 70 72 75 77
28 29 30 30 31 32 32 33 33 34 34 35 36 36 36 36 37 38 38 39 39 40 40 41 41 42 42 42 42 42 42 43 42 43 42 43 43 43 44 44 44 45 45 45 45 46 46 47 49 50 51 52 52 53 54 55 56 57 58 60 61 63 64 65 67 69 71 73 74
26 27 28 29 30 30 31 32 33 34 35 36 36 37 37 38 38 39 40 40 40 41 41 41 41 41 41 41 41 41 41 41 40 40 41 41 42 43 43 43 43 43 44 44 45 45 46 47 48 49 50 51 52 53 54 54 55 56 57 58 59 61 62 63 64 66 68 70 72
25 26 26 27 28 29 30 31 32 34 34 35 36 37 38 39 39 40 41 41 41 41 41 41 41 41 41 41 40 40 40 39 39 39 40 41 42 42 42 43 43 43 44 44 45 45 46 47 48 49 50 51 52 53 54 54 55 56 56 57 58 59 60 61 62 64 65 67 69
25 25 25 26 27 28 29 31 32 33 34 35 36 37 38 39 40 40 41 41 41 41 41 41 40 40 39 39 39 39 39 40 40 40 41 41 41 42 42 42 42 43 43 44 44 45 46 47 48 49 50 51 52 53 53 54 55 55 56 56 57 58 59 60 61 62 63 65 68
25 24 25 26 27 28 29 30 31 32 34 35 36 37 38 40 40 40 41 41 41 41 41 40 40 39 39 38 39 40 40 41 41 41 41 41 41 42 42 42 43 44 44 45 45 46 47 48 49 49 50 51 52 53 54 54 55 56 56 56 57 58 59 61 63 65 68 71 74
24 25 25 26 27 28 29 30 31 33 34 35 36 37 39 40 40 40 41 41 41 41 40 40 40 39 39 40 40 41 41 42 42 43 43 43 43 44 44 45 46 47 47 48 48 49 50 50 51 52 52 53 54 55 56 56 56 56 57 57 58 59 61 63 66 70 73 77 78
25 25 26 27 28 29 30 31 32 33 35 36 37 38 39 40 40 41 41 41 41 40 40 40 40 40 41 42 43 43 44 45 45 45 46 46 47 47 48 49 49 50 50 51 52 52 53 53 54 54 55 56 56 57 57 57 58 58 58 58 59 60 62 64 67 71 74 76 76
25 26 27 28 29 30 31 32 33 34 35 36 37 38 40 40 41 41 41 41 41 41 41 41 42 43 44 45 45 46 46 47 47 48 48 49 49 50 50 51 51 52 52 53 54 54 55 55 56 57 57 57 58 58 59 59 59 59 60 60 61 62 63 65 67 69 71 72 72
27 28 29 29 30 31 32 33 34 35 36 37 38 39 40 41 41 41 42 42 42 42 43 44 45 45 46 46 47 47 47 48 48 48 49 49 50 50 50 50 51 52 52 53 54 55 55 56 56 57 58 58 59 59 60 60 61 61 62 62 63 64 65 66 67 67 68 69 71
28 29 30 30 31 32 33 34 35 36 36 37 39 39 40 40 41 42 42 43 43 44 44 45 46 46 46 47 47 47 48 48 48 49 49 49 50 50 50 51 51 52 52 53 53 54 55 56 57 57 58 59 59 60 60 61 62 63 63 64 65 65 66 67 67 68 69 70 71
29 30 31 31 32 33 33 34 35 36 37 38 39 39 40 40 41 42 43 43 44 45 45 45 46 46 46 47 47 47 48 48 48 49 49 49 50 50 50 51 51 52 52 53 54 54 55 56 57 58 59 60 60 61 62 62 63 64 64 65 66 67 67 68 68 69 69 70 69
30 30 31 32 32 33 34 34 35 36 37 38 38 39 40 41 42 42 43 44 45 45 45 46 46 46 46 46 47 47 47 48 48 48 49 49 49 50 50 51 51 52 53 53 54 55 56 57 58 59 60 60 61 62 62 63 64 65 66 66 67 67 68 69 69 69 69 70 71
30 31 31 32 32 33 34 34 35 36 37 38 39 40 40 41 42 43 44 44 45 45 45 45 46 46 46 46 46 46 47 47 48 48 48 49 49 50 50 51 52 52 53 54 55 56 57 58 58 59 60 61 61 63 63 64 64 65 66 67 67 68 68 69 70 70 70 71 73
30 31 31 32 32 33 34 34 35 36 37 39 39 40 41 42 43 43 44 44 44 44 44 45 45 46 46 46 46 46 47 47 47 47 48 48 49 50 51 51 52 53 53 54 55 56 57 58 58 59 60 60 61 62 63 64 64 65 66 66 67 67 68 69 69 69 69 69 69
30 30 31 31 32 33 33 34 35 36 37 38 39 40 41 42 43 43 43 43 43 43 43 44 45 45 46 46 46 46 46 47 47 47 48 49 49 50 51 51 52 53 53 54 54 56 56 57 58 59 59 60 61 62 62 63 64 65 65 66 66 67 67 66 66 66 65 64 63
30 30 31 31 31 32 33 33 34 35 36 37 39 39 40 41 41 42 42 42 43 43 43 44 45 45 46 46 46 46 46 47 47 48 48 49 50 50 51 51 52 52 53 53 54 55 56 57 58 58 59 60 60 61 62 63 63 64 65 65 65 64 63 62 62 62 61 60 59
30 30 30 31 31 32 32 33 34 35 36 37 38 39 39 40 41 41 42 42 43 43 44 44 45 45 45 45 46 46 46 47 47 48 48 49 50 50 51 51 51 52 52 53 54 54 56 56 58 58 59 60 60 61 62 63 63 64 64 64 62 61 59 59 59 58 58 57 57
30 30 30 31 31 32 32 33 34 35 36 37 38 39 39 40 41 41 42 42 43 44 44 45 45 45 45 45 45 46 46 47 47 48 48 49 49 50 50 50 51 51 52 52 53 54 55 57 58 58 59 60 60 61 62 63 64 64 63 61 59 57 56 56 55 55 55 56 57
30 30 30 30 31 32 33 34 34 36 36 37 38 39 39 40 41 41 42 42 43 44 44 44 45 45 45 45 45 45 46 47 47 47 47 48 48 49 49 50 50 51 52 53 53 54 56 57 58 59 60 60 60 61 62 63 63 62 61 58 55 53 52 52 53 53 55 56 57
29 30 30 30 31 32 33 34 35 36 36 37 38 39 39 40 41 41 42 42 42 43 43 43 44 44 44 44 45 45 46 46 46 47 47 47 48 48 49 50 50 51 52 53 54 55 56 57 58 59 60 60 60 60 61 62 62 61 58 54 52 51 50 51 52 53 55 56 58
29 29 30 30 31 32 33 34 35 36 36 37 38 38 39 40 40 41 41 41 42 42 43 43 43 43 44 44 44 45 45 46 46 46 47 47 47 48 49 50 50 52 53 54 55 56 57 58 58 59 59 59 59 60 60 61 61 58 55 51 50 50 50 52 53 54 55 56 58
29 29 30 30 31 32 33 34 35 35 36 37 37 38 38 39 39 40 40 41 41 42 43 43 43 43 44 44 44 44 45 45 45 46 46 46 47 48 49 49 51 52 54 55 55 56 57 58 58 58 58 58 57 58 58 59 58 55 52 50 50 50 51 52 53 54 55 56 57
29 30 30 31 32 32 33 34 35 35 36 37 37 38 38 38 39 40 40 41 42 42 42 43 43 43 43 43 43 43 44 44 44 44 45 45 46 47 49 50 51 53 54 55 56 57 57 57 58 57 57 56 56 56 56 56 54 52 50 49 49 50 51 52 52 52 52 53 54
30 31 31 32 32 33 34 34 35 36 36 36 37 37 38 38 39 40 40 41 41 42 42 42 42 42 42 42 42 42 42 42 43 43 44 45 46 47 49 51 52 53 54 55 56 56 56 57 57 56 55 54 53 53 53 53 51 50 49 48 49 49 50 50 49 49 49 49 49
31 32 32 33 33 34 34 35 35 36 36 37 37 38 38 39 39 40 40 40 41 41 41 41 41 41 41 41 41 41 41 41 42 43 44 45 46 48 50 51 52 53 54 55 55 56 56 56 56 55 54 52 51 51 50 50 49 48 47 47 47 48 48 48 47 46 46 45 45
32 33 33 34 34 34 35 35 36 36 37 37 38 38 38 38 39 39 40 40 40 41 41 41 41 41 41 40 40 40 40 41 42 43 45 46 48 49 50 52 53 53 54 54 55 55 56 56 55 54 52 51 49 49 48 48 46 46 45 45 45 45 45 45 44 43 42 41 40
33 34 34 34 35 35 36 36 36 37 37 37 38 38 38 39 39 40 40 40 41 41 41 41 41 41 40 40 40 40 41 42 43 45 46 48 49 50 51 52 53 53 54 54 54 55 55 55 54 53 51 49 47 47 46 45 44 43 42 42 42 41 41 41 40 39 37 36 34